Airfield :
LOGIN :

Register | Disclaimer

   EN    FR    IT 

 










Legend :    VFR   Marginal VFR   IFR   Intensive IFR   Very Intensive IFR
Visi :
Ceiling :
>= 8 km
>= 3000ft
5 to 8 km
1000 to 3000 ft
1500m to 5 km
500 to 1000 ft
800 to 1500m
200 to 500 ft
< 800m
< 200 ft
Symbols :   Thunderstorms  Fog  Heavy snow  Heavy precipitations  Wind > 20 kt
SIGMETs :     Misc.  Thunderstorms  Icing  Turbulence  Mountain Waves  Volcanic Ashes







- Airport Elevation : 156 ft
- IATA code : LCC


LIBN - Lecce Galatine (military)

CURRENT METAR :
  • 200955Z 01017KT CAVOK 22/12 Q1019 RMK SKC VIS MIN 9999 WIND THR14 02016KT WIND THR32 01016KT BLU

EXPIRED METARs :
  • 200855Z 36016KT CAVOK 21/12 Q1019 RMK SKC VIS MIN 9999 WIND THR14 36016KT WIND THR32 36016KT BLU
  • 200755Z 35015KT CAVOK 20/13 Q1019 RMK SKC VIS MIN 9999 WIND THR14 35014KT WIND THR32 35014KT BLU

TAF TAF LIBN
Valid from the 20 at 09:00 until the 20 at 18:00 UTC


200800Z 2009/2018 35012KT CAVOK
TEMPO 2010/2014 35015G25KT
No reported NOTAMs for that airfield.



MET'MAP, your aeronautical weather chart ! - Copyright ORBIFLY December 2007 - Disclaimer

ORBIFLY MET'MAP TEAM :

Programming & Development : Alexandra Zaïnal
Concept & Development : Baudouin d'Aumeries
Co-Development & Prog : Marc-Olivier Méhu
Technical & hardware support : Manuel Goepfert

Contact : metmap@orbifly.com




SOURCES & CREDITS :

   NOAA